QPF
0.00 0.00 0.00 0.00 0.00 0.00 0.00 0.00 0.00 0.00 0.00 0.11 0.08 0.02 0.01 0.01 0.04 0.28 0.53 0.24 0.04 0.00 0.00 0.03 0.06 0.05 0.07 0.04 0.10 0.04 0.00 0.00 0.00 0.00 0.00 0.00 0.00 0.00 0.00 0.00 0.00 0.00 0.00
0.00 0.00 0.00 0.00 0.00 0.00 0.00 0.00 0.00 0.00 0.00 0.03 0.11 0.02 0.01 0.01 0.05 0.17 0.34 0.21 0.15 0.04 0.03 0.02 0.02 0.04 0.14 0.10 0.06 0.03 0.00 0.00 0.00 0.00 0.00 0.00 0.00 0.00 0.00 0.00 0.00 0.00 0.00
0.00 0.00 0.00 0.00 0.00 0.00 0.05 0.01 0.00 0.00 0.00 0.00 0.21 0.29 0.11 0.06 0.06 0.05 0.10 0.17 0.21 0.15 0.09 0.03 0.03 0.08 0.13 0.13 0.04 0.01 0.00 0.00 0.00 0.00 0.00 0.00 0.00 0.00 0.00 0.00 0.00 0.00 0.00
0.00 0.00 0.00 0.00 0.00 0.00 0.09 0.07 0.02 0.00 0.00 0.00 0.10 0.31 0.10 0.03 0.02 0.02 0.01 0.09 0.20 0.12 0.12 0.07 0.06 0.11 0.28 0.14 0.07 0.01 0.00 0.00 0.00 0.00 0.00 0.00 0.00 0.00 0.00 0.00 0.00 0.00 0.00
0.00 0.00 0.00 0.00 0.00 0.00 0.10 0.16 0.08 0.02 0.00 0.00 0.01 0.18 0.24 0.10 0.01 0.01 0.01 0.05 0.06 0.05 0.07 0.05 0.09 0.13 0.24 0.21 0.04 0.00 0.00 0.00 0.00 0.00 0.00 0.00 0.00 0.00 0.00 0.00 0.00 0.00 0.00
0.00 0.00 0.00 0.00 0.00 0.00 0.02 0.16 0.24 0.08 0.01 0.00 0.00 0.03 0.14 0.17 0.02 0.01 0.00 0.01 0.04 0.06 0.03 0.03 0.07 0.12 0.14 0.09 0.00 0.00 0.00 0.00 0.00 0.00 0.00 0.00 0.00 0.00 0.00 0.00 0.00 0.00 0.00
0.00 0.00 0.00 0.00 0.00 0.00 0.00 0.07 0.41 0.31 0.11 0.03 0.00 0.00 0.01 0.04 0.06 0.01 0.00 0.00 0.00 0.01 0.02 0.00 0.00 0.07 0.03 0.03 0.00 0.00 0.00 0.00 0.00 0.00 0.00 0.00 0.00 0.00 0.00 0.00 0.00 0.00 0.00
0.00 0.00 0.00 0.00 0.00 0.00 0.00 0.03 0.17 0.43 0.26 0.13 0.05 0.01 0.01 0.01 0.02 0.01 0.00 0.00 0.00 0.00 0.00 0.00 0.00 0.00 0.01 0.01 0.00 0.00 0.00 0.00 0.00 0.00 0.00 0.00 0.00 0.00 0.00 0.00 0.00 0.00 0.00
0.00 0.00 0.00 0.00 0.00 0.00 0.00 0.01 0.06 0.16 0.32 0.12 0.06 0.05 0.03 0.02 0.01 0.01 0.00 0.00 0.00 0.00 0.00 0.00 0.00 0.00 0.00 0.01 0.00 0.00 0.00 0.00 0.00 0.00 0.00 0.01 0.01 0.00 0.00 0.00 0.00 0.00 0.00
0.00 0.00 0.00 0.00 0.00 0.00 0.00 0.00 0.02 0.09 0.06 0.03 0.02 0.03 0.04 0.03 0.01 0.01 0.00 0.00 0.00 0.00 0.00 0.00 0.00 0.00 0.00 0.01 0.02 0.00 0.00 0.00 0.00 0.00 0.00 0.03 0.02 0.01 0.00 0.00 0.00 0.00 0.00
0.00 0.00 0.00 0.00 0.00 0.00 0.00 0.00 0.00 0.08 0.13 0.10 0.09 0.07 0.04 0.03 0.02 0.01 0.00 0.00 0.00 0.00 0.00 0.00 0.00 0.00 0.00 0.00 0.01 0.00 0.00 0.00 0.00 0.00 0.00 0.02 0.04 0.04 0.00 0.00 0.00 0.00 0.00
0.00 0.00 0.00 0.00 0.00 0.00 0.00 0.00 0.00 0.01 0.20 0.24 0.12 0.12 0.08 0.07 0.03 0.03 0.01 0.00 0.00 0.00 0.00 0.00 0.00 0.00 0.00 0.00 0.00 0.00 0.00 0.00 0.00 0.00 0.00 0.00 0.04 0.05 0.04 0.00 0.00 0.00 0.00
0.00 0.00 0.00 0.00 0.00 0.00 0.00 0.00 0.00 0.01 0.17 0.47 0.27 0.16 0.11 0.09 0.07 0.08 0.06 0.02 0.00 0.00 0.00 0.00 0.00 0.00 0.00 0.00 0.00 0.00 0.00 0.00 0.00 0.00 0.00 0.00 0.01 0.03 0.04 0.01 0.01 0.03 0.01
0.00 0.00 0.00 0.00 0.00 0.00 0.01 0.01 0.01 0.00 0.02 0.29 0.34 0.32 0.18 0.11 0.07 0.09 0.09 0.04 0.01 0.00 0.00 0.00 0.00 0.00 0.00 0.00 0.00 0.00 0.00 0.00 0.00 0.00 0.00 0.00 0.00 0.01 0.00 0.00 0.00 0.00 0.00
0.00 0.00 0.01 0.02 0.03 0.03 0.03 0.02 0.02 0.01 0.00 0.10 0.52 0.60 0.35 0.29 0.18 0.13 0.10 0.06 0.04 0.01 0.00 0.00 0.00 0.00 0.00 0.00 0.00 0.00 0.00 0.00 0.00 0.00 0.00 0.00 0.00 0.01 0.00 0.00 0.00 0.00 0.00
0.00 0.00 0.01 0.03 0.06 0.08 0.06 0.04 0.04 0.04 0.03 0.04 0.17 0.60 0.67 0.45 0.28 0.22 0.14 0.10 0.03 0.02 0.00 0.00 0.00 0.00 0.00 0.00 0.00 0.00 0.00 0.00 0.00 0.00 0.00 0.01 0.02 0.02 0.02 0.02 0.03 0.02 0.01
0.00 0.00 0.01 0.03 0.05 0.12 0.12 0.11 0.10 0.07 0.05 0.05 0.07 0.11 0.29 0.55 0.79 0.58 0.37 0.20 0.06 0.02 0.00 0.00 0.00 0.00 0.00 0.00 0.00 0.00 0.00 0.00 0.00 0.01 0.01 0.02 0.02 0.04 0.03 0.02 0.02 0.02 0.02
0.00 0.00 0.00 0.02 0.04 0.06 0.11 0.11 0.14 0.14 0.07 0.03 0.05 0.07 0.09 0.14 0.29 0.60 0.82 0.53 0.28 0.07 0.02 0.00 0.00 0.00 0.00 0.00 0.00 0.00 0.00 0.00 0.02 0.02 0.02 0.03 0.04 0.05 0.05 0.03 0.03 0.02 0.01
0.00 0.01 0.01 0.00 0.03 0.03 0.05 0.09 0.12 0.17 0.10 0.05 0.04 0.06 0.07 0.11 0.26 0.64 0.70 0.73 0.70 0.47 0.14 0.03 0.01 0.00 0.00 0.00 0.00 0.00 0.00 0.00 0.00 0.01 0.02 0.03 0.03 0.02 0.02 0.02 0.01 0.01 0.01
0.00 0.00 0.01 0.00 0.01 0.02 0.01 0.04 0.08 0.14 0.13 0.08 0.11 0.07 0.12 0.14 0.18 0.31 0.38 0.60 0.57 0.73 0.38 0.05 0.02 0.01 0.00 0.02 0.03 0.01 0.00 0.01 0.00 0.00 0.00 0.01 0.01 0.01 0.00 0.00 0.00 0.00 0.00
0.00 0.00 0.00 0.01 0.00 0.01 0.01 0.01 0.04 0.09 0.13 0.10 0.10 0.13 0.11 0.15 0.22 0.21 0.18 0.13 0.44 0.57 0.60 0.15 0.06 0.04 0.03 0.05 0.07 0.03 0.01 0.01 0.02 0.03 0.03 0.04 0.05 0.04 0.04 0.04 0.04 0.03 0.02
0.00 0.00 0.00 0.00 0.00 0.00 0.01 0.01 0.01 0.02 0.05 0.08 0.08 0.09 0.08 0.09 0.15 0.24 0.28 0.17 0.13 0.28 0.50 0.47 0.25 0.16 0.10 0.10 0.10 0.07 0.02 0.01 0.02 0.03 0.03 0.02 0.03 0.03 0.02 0.02 0.01 0.00 0.00
0.00 0.00 0.00 0.00 0.00 0.00 0.00 0.01 0.00 0.00 0.01 0.03 0.05 0.08 0.07 0.06 0.05 0.10 0.29 0.36 0.23 0.16 0.21 0.28 0.62 0.65 0.43 0.25 0.23 0.16 0.09 0.04 0.02 0.01 0.01 0.01 0.01 0.00 0.00 0.00 0.00 0.01 0.00
0.00 0.00 0.00 0.00 0.00 0.00 0.00 0.00 0.00 0.00 0.00 0.01 0.03 0.04 0.07 0.06 0.05 0.06 0.09 0.20 0.28 0.28 0.23 0.21 0.23 0.36 0.71 0.54 0.32 0.20 0.12 0.07 0.05 0.04 0.03 0.02 0.01 0.00 0.00 0.00 0.00 0.00 0.00
0.00 0.00 0.00 0.00 0.00 0.00 0.00 0.00 0.00 0.00 0.00 0.00 0.00 0.01 0.02 0.07 0.05 0.07 0.09 0.09 0.18 0.20 0.19 0.17 0.17 0.29 0.23 0.29 0.32 0.27 0.19 0.12 0.08 0.05 0.01 0.01 0.00 0.00 0.00 0.00 0.00 0.00 0.00
0.00 0.00 0.00 0.00 0.00 0.00 0.00 0.00 0.00 0.00 0.00 0.00 0.00 0.00 0.00 0.01 0.05 0.04 0.06 0.09 0.07 0.14 0.20 0.20 0.19 0.16 0.20 0.19 0.15 0.20 0.19 0.21 0.18 0.09 0.03 0.01 0.01 0.00 0.00 0.00 0.00 0.00 0.00
MSLP
1007.72 1006.64 1006.81 1005.66 1003.63 1002.10 1002.31 1003.33 1004.02 1004.89 1005.95 1007.40 1008.36 1009.27 1009.97 1010.89 1011.84 1012.63 1013.46 1013.64 1014.31 1014.50 1014.88 1015.00 1015.55 1015.88 1016.63 1017.57 1018.44 1019.24 1019.91 1021.11 1021.74 1022.12 1023.30 1023.79 1023.70 1023.71 1023.64 1023.62 1023.90 1024.57 1024.89
1008.78 1008.44 1008.15 1007.43 1006.53 1004.24 1001.99 1002.27 1002.96 1004.10 1004.84 1006.14 1007.20 1008.44 1009.55 1010.47 1011.34 1012.25 1013.11 1013.59 1013.93 1014.20 1014.14 1014.80 1015.80 1015.63 1016.43 1017.42 1018.00 1019.02 1019.96 1020.88 1021.33 1021.93 1023.05 1023.98 1024.31 1023.97 1023.80 1023.67 1023.69 1024.19 1024.70
1011.75 1010.78 1010.10 1009.62 1008.73 1007.16 1006.35 1003.15 1002.49 1003.02 1003.98 1005.05 1006.53 1008.38 1009.41 1010.24 1010.98 1011.60 1012.46 1013.31 1013.60 1013.66 1013.92 1014.56 1014.96 1015.36 1015.94 1017.10 1017.54 1018.61 1019.04 1020.14 1020.94 1021.14 1021.55 1023.10 1023.33 1023.84 1023.83 1023.80 1023.80 1024.04 1024.54
1013.37 1012.79 1011.99 1011.04 1010.19 1009.05 1007.76 1006.46 1004.06 1002.36 1003.04 1003.98 1005.32 1007.06 1008.10 1008.91 1009.67 1010.76 1011.77 1012.61 1012.93 1012.95 1014.10 1014.28 1014.20 1014.62 1015.85 1016.68 1017.32 1017.79 1018.58 1019.09 1019.93 1021.03 1020.53 1020.71 1021.29 1022.65 1023.78 1023.85 1023.78 1023.81 1024.07
1015.44 1014.46 1013.94 1013.08 1011.83 1010.40 1009.03 1007.57 1005.71 1003.64 1002.32 1003.23 1003.79 1005.00 1007.08 1007.80 1009.12 1010.16 1011.06 1011.99 1012.46 1012.64 1013.63 1014.03 1014.31 1014.61 1015.46 1016.28 1016.98 1017.63 1018.14 1018.32 1018.81 1019.57 1019.97 1020.35 1020.83 1020.95 1022.11 1023.27 1023.58 1023.78 1023.49
1016.96 1016.16 1015.63 1014.33 1012.82 1011.04 1009.73 1008.66 1007.44 1006.09 1002.87 1002.26 1002.91 1003.96 1005.48 1007.16 1008.15 1009.37 1010.22 1011.03 1011.75 1012.57 1013.11 1013.60 1013.97 1014.30 1015.06 1016.07 1016.38 1016.56 1017.15 1017.78 1018.20 1018.87 1019.34 1019.50 1019.93 1020.25 1020.80 1022.13 1023.00 1023.16 1023.21
1018.29 1017.11 1015.56 1014.24 1013.16 1011.41 1010.21 1009.60 1008.83 1007.35 1006.61 1003.31 1002.36 1003.10 1004.39 1005.64 1006.92 1007.89 1008.75 1009.69 1010.75 1011.53 1011.98 1012.11 1013.26 1013.28 1014.01 1014.41 1015.06 1015.65 1016.21 1016.75 1017.37 1018.15 1018.62 1018.90 1019.01 1019.20 1019.80 1020.88 1022.05 1022.65 1022.80
1019.12 1018.07 1016.84 1015.52 1013.91 1012.45 1010.97 1010.04 1009.73 1007.50 1006.57 1005.62 1004.87 1002.55 1002.98 1004.13 1005.89 1006.97 1007.93 1008.57 1009.16 1009.81 1010.41 1011.32 1012.32 1012.52 1013.03 1013.83 1014.05 1014.83 1015.75 1016.18 1016.53 1017.30 1017.81 1018.14 1018.39 1018.49 1018.94 1019.86 1021.03 1022.40 1022.62
1019.94 1018.80 1017.60 1016.46 1014.81 1013.14 1011.76 1010.53 1009.43 1008.80 1006.75 1006.70 1005.54 1004.52 1003.34 1003.52 1004.55 1005.77 1006.93 1007.62 1008.17 1008.75 1009.69 1010.46 1011.21 1011.80 1012.24 1012.91 1013.16 1013.96 1014.83 1015.45 1015.96 1016.53 1016.92 1017.29 1017.67 1017.95 1018.22 1018.81 1019.63 1020.52 1021.96
1020.75 1019.51 1018.09 1016.62 1015.26 1014.00 1012.36 1010.85 1010.15 1008.76 1007.76 1006.61 1005.45 1004.25 1003.61 1003.26 1003.84 1004.82 1005.94 1006.64 1007.23 1007.90 1008.41 1009.41 1009.98 1010.68 1010.92 1011.71 1012.56 1013.40 1014.22 1014.66 1015.28 1015.89 1016.28 1016.67 1016.88 1017.31 1017.76 1018.12 1018.77 1019.35 1019.96
1020.81 1019.80 1018.48 1016.90 1015.75 1014.56 1012.95 1011.36 1009.93 1009.29 1008.44 1007.84 1005.73 1004.09 1003.28 1003.44 1003.51 1003.90 1004.65 1005.56 1006.23 1006.96 1007.42 1008.19 1008.83 1009.42 1010.10 1010.68 1011.67 1012.57 1013.32 1013.89 1014.46 1015.03 1015.50 1015.89 1016.31 1016.84 1017.33 1017.70 1018.20 1018.83 1019.21
1022.11 1020.53 1018.60 1016.72 1015.38 1014.33 1013.14 1011.91 1010.69 1009.49 1008.30 1007.12 1005.67 1004.05 1002.88 1003.29 1003.40 1003.49 1003.59 1004.32 1004.81 1005.84 1006.38 1007.13 1007.94 1008.47 1008.84 1009.73 1010.63 1011.48 1012.05 1012.76 1013.58 1014.12 1014.84 1015.15 1015.69 1016.28 1016.62 1017.17 1017.74 1018.15 1018.58
1022.06 1020.21 1018.25 1016.64 1015.65 1014.50 1013.59 1012.65 1011.63 1010.36 1008.97 1007.51 1005.75 1003.64 1002.79 1002.69 1002.73 1002.96 1003.16 1003.53 1003.88 1004.83 1005.62 1006.25 1006.88 1007.63 1008.05 1008.67 1009.55 1010.07 1010.79 1011.66 1012.39 1013.08 1013.72 1014.11 1014.75 1015.44 1016.09 1016.54 1017.15 1017.61 1018.10
1022.45 1020.69 1019.10 1018.04 1016.75 1015.83 1014.67 1013.54 1012.62 1011.53 1010.12 1008.41 1006.56 1004.78 1003.45 1002.29 1002.32 1002.14 1002.32 1002.72 1003.15 1003.78 1004.59 1005.27 1005.91 1006.66 1007.31 1007.83 1008.57 1009.29 1010.19 1010.93 1011.53 1011.98 1012.58 1013.13 1013.75 1014.31 1015.16 1015.75 1016.10 1016.81 1017.68
1021.92 1021.02 1019.79 1019.14 1018.16 1017.08 1015.82 1014.63 1013.42 1012.36 1011.33 1009.87 1007.70 1005.85 1004.03 1003.06 1001.67 1001.63 1001.63 1002.01 1002.42 1002.99 1003.70 1004.38 1005.08 1005.92 1006.46 1007.05 1007.79 1008.47 1009.35 1010.15 1010.69 1011.19 1011.58 1012.16 1012.67 1013.13 1013.80 1014.64 1015.37 1016.11 1016.87
1022.55 1021.61 1021.18 1020.32 1019.21 1018.11 1017.20 1016.00 1014.81 1013.73 1012.84 1011.20 1009.30 1007.46 1004.70 1002.01 1000.96 1001.35 1001.57 1001.53 1001.72 1002.25 1003.02 1003.67 1004.22 1005.06 1005.67 1006.14 1006.91 1007.63 1008.32 1009.11 1009.84 1010.42 1010.85 1011.25 1011.84 1012.36 1012.90 1013.53 1014.19 1014.81 1015.88
1023.32 1022.43 1021.67 1021.06 1020.06 1019.06 1018.85 1017.66 1016.27 1015.20 1014.07 1012.01 1010.25 1007.93 1005.72 1004.03 1003.67 1002.10 1000.82 1000.19 1000.70 1001.33 1001.89 1002.84 1003.53 1004.07 1004.77 1005.25 1005.75 1006.46 1007.24 1008.04 1008.72 1009.28 1010.05 1010.80 1011.17 1011.69 1012.52 1013.16 1013.81 1014.35 1014.59
1023.41 1022.66 1021.79 1020.82 1019.77 1019.45 1019.26 1018.54 1017.30 1016.17 1014.54 1012.79 1011.14 1009.03 1007.37 1006.29 1005.00 1002.60 1000.63 999.57 1000.24 1000.91 1000.70 1001.59 1002.51 1003.38 1003.80 1004.64 1005.25 1005.83 1006.11 1006.52 1007.25 1008.06 1008.84 1009.60 1010.38 1011.04 1011.69 1012.63 1013.67 1014.12 1014.62
1022.67 1021.89 1021.37 1020.92 1020.41 1020.04 1019.37 1019.35 1018.30 1017.13 1015.37 1012.65 1011.63 1009.65 1008.55 1006.56 1004.93 1004.26 1002.27 1001.34 1000.65 1000.07 1001.49 1001.26 1001.79 1002.68 1003.44 1003.92 1004.76 1005.66 1005.99 1006.46 1006.75 1007.07 1007.55 1008.32 1009.20 1009.79 1010.46 1011.73 1012.67 1013.49 1014.27
1022.26 1021.64 1021.15 1020.90 1020.52 1020.09 1019.68 1019.17 1018.30 1017.24 1015.44 1014.13 1012.61 1011.03 1009.18 1008.31 1006.54 1005.08 1003.73 1002.95 1001.07 1000.51 1000.27 1000.90 1001.10 1001.79 1002.72 1003.47 1004.15 1004.89 1005.38 1006.04 1006.60 1007.15 1007.58 1008.15 1008.85 1009.61 1010.21 1010.80 1011.46 1012.75 1013.45
1022.23 1021.54 1021.08 1020.93 1020.43 1019.74 1019.36 1018.59 1017.97 1017.00 1015.61 1014.15 1012.17 1010.40 1009.51 1009.62 1007.71 1006.63 1004.96 1004.71 1002.51 1000.64 1001.91 1000.16 1001.19 1001.43 1001.75 1002.89 1003.48 1003.71 1004.04 1004.95 1006.06 1006.69 1007.50 1008.31 1008.66 1009.03 1009.76 1010.23 1010.63 1011.28 1011.99
1022.27 1021.68 1021.24 1020.68 1020.18 1019.48 1018.75 1018.36 1017.65 1016.97 1015.69 1014.23 1013.40 1012.62 1011.66 1011.04 1008.80 1008.31 1007.21 1006.19 1003.85 1002.89 1003.13 1001.12 1002.19 1002.51 1002.58 1002.55 1003.12 1003.15 1003.22 1004.19 1005.06 1006.21 1006.91 1007.85 1008.60 1008.88 1009.54 1010.40 1010.81 1011.46 1012.09
1022.39 1021.91 1021.19 1020.51 1019.95 1019.55 1019.16 1018.40 1017.59 1016.46 1015.68 1015.40 1014.53 1013.03 1012.33 1010.30 1009.74 1009.80 1008.58 1006.06 1006.03 1005.26 1004.88 1003.63 1004.13 1003.33 1002.46 1003.53 1003.33 1003.53 1003.76 1004.12 1004.97 1005.89 1006.88 1007.75 1008.34 1009.07 1009.85 1010.37 1010.85 1011.63 1012.66
1022.65 1021.81 1021.19 1020.68 1020.10 1019.50 1018.77 1018.06 1017.36 1016.75 1016.15 1015.39 1014.46 1013.47 1012.20 1011.17 1011.39 1010.42 1009.09 1009.17 1008.35 1007.37 1007.10 1007.06 1006.14 1005.93 1004.66 1004.89 1004.75 1003.88 1003.95 1004.85 1005.65 1006.43 1007.33 1008.18 1008.72 1009.06 1009.56 1010.97 1011.56 1011.90 1012.38
1022.79 1022.11 1021.54 1020.79 1020.19 1019.44 1018.65 1017.84 1017.19 1016.88 1016.27 1016.08 1015.47 1014.70 1014.06 1013.34 1012.30 1011.91 1011.61 1010.89 1010.98 1010.19 1009.58 1009.01 1009.25 1007.47 1006.57 1006.87 1005.45 1005.54 1005.76 1006.36 1006.15 1006.78 1007.60 1008.42 1008.82 1009.72 1010.43 1011.07 1011.66 1011.94 1012.30
1022.99 1022.33 1021.66 1020.99 1020.30 1019.65 1018.98 1018.12 1017.19 1016.62 1016.07 1015.86 1015.26 1014.83 1014.38 1013.59 1013.11 1013.08 1011.70 1011.74 1012.15 1010.78 1011.08 1010.63 1010.44 1009.11 1009.58 1008.50 1008.07 1007.35 1006.78 1007.58 1008.12 1007.33 1008.08 1008.27 1008.81 1009.90 1010.71 1011.10 1011.75 1012.01 1012.45
Thickness
5618 5637 5639 5654 5672 5697 5703 5705 5705 5705 5698 5692 5690 5688 5686 5681 5675 5672 5666 5662 5662 5667 5669 5673 5672 5674 5675 5672 5669 5665 5664 5659 5655 5657 5651 5651 5656 5659 5661 5663 5663 5661 5659
5602 5614 5622 5629 5639 5663 5691 5705 5704 5702 5699 5693 5693 5688 5683 5677 5673 5666 5662 5658 5660 5663 5669 5670 5664 5672 5670 5668 5667 5662 5658 5654 5655 5654 5650 5646 5648 5655 5658 5661 5663 5659 5658
5565 5582 5596 5606 5614 5631 5642 5689 5700 5703 5698 5694 5688 5678 5674 5669 5668 5668 5665 5661 5656 5663 5664 5664 5665 5669 5670 5664 5665 5661 5660 5654 5654 5657 5658 5648 5652 5650 5656 5658 5660 5660 5656
5543 5556 5569 5584 5596 5608 5623 5643 5678 5701 5697 5695 5687 5679 5675 5672 5674 5670 5663 5659 5659 5663 5659 5662 5667 5669 5663 5660 5661 5663 5658 5658 5657 5654 5665 5668 5665 5655 5652 5654 5656 5658 5657
5513 5530 5542 5558 5574 5589 5604 5626 5658 5679 5696 5691 5691 5688 5675 5675 5670 5666 5663 5658 5658 5660 5656 5656 5659 5662 5658 5656 5654 5653 5657 5660 5663 5661 5663 5663 5665 5668 5660 5654 5653 5654 5658
5483 5500 5516 5536 5557 5576 5591 5606 5629 5648 5686 5694 5692 5687 5681 5670 5668 5664 5663 5661 5659 5656 5655 5652 5656 5658 5653 5647 5650 5655 5655 5657 5661 5661 5663 5665 5664 5664 5664 5657 5652 5655 5656
5459 5478 5503 5523 5544 5563 5577 5587 5606 5622 5630 5672 5688 5686 5680 5676 5673 5670 5668 5665 5661 5658 5659 5662 5657 5658 5656 5654 5656 5655 5659 5663 5663 5663 5664 5664 5668 5669 5668 5661 5654 5652 5653
5443 5458 5478 5500 5523 5542 5560 5573 5584 5603 5616 5632 5643 5678 5682 5681 5674 5673 5671 5670 5668 5668 5668 5664 5659 5661 5659 5657 5659 5659 5658 5660 5665 5662 5663 5664 5666 5670 5670 5663 5656 5647 5647
5424 5442 5458 5478 5499 5523 5541 5558 5572 5583 5601 5615 5635 5647 5663 5671 5675 5675 5672 5670 5672 5670 5668 5665 5662 5665 5667 5662 5664 5662 5661 5661 5661 5661 5663 5665 5665 5668 5670 5666 5662 5657 5644
5408 5425 5446 5464 5482 5503 5523 5543 5554 5571 5592 5615 5635 5650 5656 5662 5665 5668 5670 5670 5671 5670 5671 5668 5667 5664 5667 5666 5662 5659 5657 5660 5661 5659 5659 5662 5664 5664 5666 5665 5662 5660 5656
5399 5413 5432 5452 5467 5483 5505 5525 5545 5558 5578 5593 5619 5640 5649 5656 5660 5665 5669 5670 5669 5669 5670 5669 5668 5668 5666 5666 5663 5657 5656 5657 5658 5658 5659 5659 5660 5660 5662 5662 5660 5656 5655
5378 5398 5421 5444 5460 5473 5490 5507 5525 5544 5563 5586 5606 5629 5645 5646 5652 5657 5667 5673 5673 5669 5670 5668 5666 5668 5670 5666 5664 5661 5660 5659 5658 5658 5655 5658 5657 5655 5659 5658 5657 5653 5650
5367 5390 5413 5434 5447 5462 5474 5488 5507 5526 5545 5568 5592 5622 5636 5641 5649 5652 5658 5666 5672 5668 5668 5665 5665 5665 5666 5665 5663 5667 5664 5660 5658 5658 5656 5658 5657 5655 5653 5655 5652 5648 5644
5355 5378 5397 5411 5429 5440 5454 5469 5485 5504 5523 5547 5572 5599 5618 5633 5641 5651 5655 5660 5666 5666 5665 5664 5663 5663 5664 5664 5662 5661 5659 5656 5656 5658 5658 5658 5658 5657 5653 5651 5651 5647 5639
5354 5366 5381 5391 5405 5417 5432 5447 5464 5481 5499 5521 5547 5573 5597 5611 5633 5642 5652 5658 5660 5660 5661 5661 5660 5658 5660 5660 5658 5657 5654 5653 5653 5655 5658 5659 5659 5658 5656 5650 5647 5644 5639
5342 5355 5361 5371 5383 5398 5409 5422 5439 5456 5472 5495 5518 5545 5577 5606 5620 5631 5639 5649 5655 5655 5654 5655 5658 5655 5655 5656 5653 5654 5653 5650 5649 5650 5654 5656 5652 5651 5649 5648 5644 5644 5636
5328 5338 5346 5355 5365 5377 5383 5397 5411 5429 5448 5473 5497 5524 5554 5579 5579 5612 5635 5648 5651 5652 5652 5649 5650 5653 5653 5652 5654 5652 5653 5650 5649 5651 5650 5648 5649 5646 5642 5638 5635 5634 5634
5322 5330 5336 5344 5357 5360 5367 5376 5389 5404 5430 5453 5474 5502 5531 5549 5562 5589 5625 5628 5636 5640 5651 5650 5648 5648 5651 5645 5646 5647 5653 5653 5652 5650 5649 5647 5645 5642 5640 5634 5628 5628 5623
5322 5329 5334 5337 5342 5347 5357 5356 5369 5384 5405 5438 5456 5489 5511 5538 5557 5568 5596 5612 5621 5628 5623 5638 5641 5641 5643 5640 5638 5635 5641 5643 5645 5647 5647 5644 5640 5637 5634 5630 5625 5619 5614
5318 5324 5330 5334 5336 5340 5345 5353 5360 5370 5392 5413 5436 5464 5495 5509 5532 5550 5563 5583 5609 5621 5617 5626 5634 5636 5635 5628 5629 5632 5635 5634 5634 5635 5634 5631 5630 5622 5622 5624 5619 5610 5608
5313 5320 5324 5326 5331 5337 5338 5350 5353 5365 5380 5402 5427 5459 5480 5485 5507 5526 5543 5560 5583 5604 5595 5614 5623 5627 5630 5624 5623 5628 5634 5632 5624 5625 5620 5618 5616 5615 5613 5614 5613 5611 5603
5306 5312 5318 5322 5327 5334 5339 5341 5351 5361 5375 5394 5410 5428 5449 5462 5487 5503 5519 5533 5556 5576 5573 5588 5594 5598 5610 5615 5614 5619 5625 5621 5620 5615 5613 5608 5603 5603 5600 5595 5594 5589 5587
5298 5303 5311 5317 5322 5326 5329 5335 5342 5358 5369 5379 5395 5415 5430 5454 5469 5479 5495 5515 5520 5538 5545 5559 5571 5585 5603 5593 5600 5602 5604 5605 5605 5602 5597 5592 5592 5590 5585 5584 5580 5575 5567
5286 5297 5303 5308 5313 5320 5328 5333 5338 5344 5356 5371 5386 5404 5421 5437 5444 5460 5479 5481 5494 5501 5511 5526 5540 5552 5564 5557 5555 5582 5591 5586 5585 5581 5580 5577 5575 5576 5576 5567 5563 5561 5556
5276 5283 5291 5300 5305 5313 5322 5330 5336 5338 5349 5356 5367 5383 5397 5410 5426 5435 5446 5460 5459 5473 5483 5495 5502 5519 5527 5533 5546 5557 5561 5561 5567 5566 5565 5562 5563 5559 5555 5550 5547 5545 5544
5266 5272 5280 5290 5297 5304 5311 5322 5332 5337 5345 5351 5364 5371 5383 5396 5406 5413 5433 5439 5442 5457 5458 5469 5480 5491 5491 5508 5521 5532 5536 5542 5537 5549 5548 5551 5549 5543 5538 5537 5532 5531 5528